Location: Stonelick Lake State Park
(39.2170°N, 84.0850°W)
Time: 09:50:48
(UTC-05:00)

Daily predictions for brighter satellites

Satellite Brightness Start Highest point End
(mag) Time Altitude Azimuth Time Altitude Azimuth Time Altitude Azimuth
BREEZE-M R/B 3.5 17:53:47 10° SW 17:57:27 74° SE 18:08:23 10° ENE
ERS-2 4.0 18:04:07 10° E 18:05:30 12° ENE 18:06:54 10° NE
Cosmos 1842 Rocket 3.6 18:01:57 10° N 18:06:23 67° E 18:10:45 10° SSE
Cosmos 2341 Rocket 4.2 18:03:00 10° N 18:09:04 50° E 18:15:09 10° SSE
Cosmos 1908 3.2 18:05:47 10° N 18:09:39 60° E 18:13:26 10° SSE
Cosmos 1486 Rocket 4.4 18:05:28 10° NNW 18:10:45 71° WSW 18:15:57 10° S
Meteor 1-28 Rocket 3.5 18:11:48 10° N 18:15:37 74° WNW 18:19:23 10° SSW
Cosmos 1076 Rocket 4.4 18:12:03 10° SSE 18:15:48 29° E 18:19:34 10° NNE
Cosmos 1992 Rocket 4.1 18:11:01 10° S 18:16:07 61° ESE 18:21:16 10° NNE
CSL-04 Debris 4.4 18:11:44 10° SSE 18:17:10 81° WSW 18:22:40 10° NNW
USA 116 4.0 18:13:20 10° NNE 18:17:29 71° ESE 18:22:09 10° S
FENGYUN 3A 4.2 18:13:30 10° SE 18:18:20 36° ENE 18:23:11 10° N
NOSS 2-1 (C) 3.3 18:14:58 10° SW 18:18:37 74° NW 18:22:35 10° NNE
Cosmos 2084 3.1 18:15:09 10° NNW 18:18:56 63° NE 18:22:47 10° SE
NOSS 2-1 (D) 3.4 18:15:36 10° SW 18:19:15 71° NW 18:23:14 10° NNE
Cosmos 1400 Rocket 3.4 18:16:06 10° SSE 18:19:49 38° E 18:23:36 10° NNE
SL-16 R/B 4.3 18:15:45 10° WSW 18:20:13 23° NW 18:24:43 10° N
KORONAS-FOTON 3.7 18:17:04 10° S 18:20:51 68° E 18:24:37 10° NNE
H-2A R/B 4.4 18:20:44 10° E 18:22:43 14° ENE 18:24:43 10° NE
Okean 3 Rocket 4.2 18:19:04 10° SSE 18:23:14 38° E 18:27:26 10° NNE
Cosmos 2154 Rocket 4.2 18:21:34 10° N 18:27:53 80° W 18:34:12 10° S
OAO 3 Rocket 4.0 18:23:42 10° WSW 18:28:05 40° SSE 18:32:27 10° E
BREEZE-M R/B 3.7 18:30:01 10° W 18:32:42 30° NNW 18:34:09 13° NNE
Cosmos 2181 Rocket 4.1 18:27:37 10° S 18:34:01 70° E 18:40:26 10° NNE
Cosmos 1943 3.2 18:29:16 10° SSW 18:34:54 90° NW 18:40:33 10° NNE
SKYMED 2 3.5 18:33:42 10° NNE 18:38:03 71° ESE 18:42:22 10° S
Cosmos 968 Rocket 3.7 18:33:14 10° N 18:38:11 45° ENE 18:43:04 10° SE
ATLAS 2AS CENTAUR R/B 2.9 18:31:27 10° NNW 18:39:25 78° NE 18:46:42 10° SE
MONITOR-E 4.2 18:37:01 10° SSE 18:39:58 50° ENE 18:42:57 10° N
METEOR-M 4.2 18:36:09 10° SSE 18:41:30 86° WSW 18:46:54 10° NNW
Lacrosse 5 rocket 4.3 18:38:39 10° WNW 18:42:06 22° WSW 18:45:36 10° S
Cosmos 1726 2.0 18:38:40 10° N 18:42:21 84° E 18:46:00 10° S
ALOS 2.2 18:40:56 10° SSE 18:45:33 65° ENE 18:50:12 10° N
YAOGAN 1 2.8 18:42:18 10° S 18:46:37 74° WSW 18:50:57 10° NNW
CZ-4 R/B 2.6 18:43:17 10° S 18:47:19 47° W 18:51:26 10° NNW
NOSS 2-1 (E) 4.4 18:44:03 10° WSW 18:47:33 40° NW 18:51:27 10° NNE
EO 1 Del DPAF 3.3 18:44:33 10° NNE 18:48:20 55° E 18:52:05 10° S
Meteor 2-16 Rocket 4.4 18:48:19 10° N 18:54:28 85° E 19:00:35 10° S
Cosmos 2218 Rocket 3.9 18:54:19 10° N 19:00:29 68° E 19:06:35 10° SSE
SL-8 Rocket 3.9 18:55:19 10° N 19:01:32 84° E 19:07:45 10° S
NOSS 3-4 (A) 4.3 18:55:11 10° NNW 19:01:36 37° NE 19:05:58 20° E
NOSS 3-4 (C) 4.4 18:55:17 10° NNW 19:01:41 36° NE 19:05:59 20° E
Cosmos 2263 4.2 18:58:05 10° NNW 19:03:54 87° WSW 19:09:38 10° SSE
Thor Agena Rocket 4.3 19:02:11 23° ENE 19:04:11 30° E 19:08:43 10° SSE
Landsat 4 4.2 19:01:19 10° N 19:05:02 60° WNW 19:08:42 10° SSW
Meteor 2-10 4.2 19:01:44 10° NNW 19:06:45 71° W 19:11:49 10° S
SL-14 R/B 3.5 19:03:40 10° SSW 19:07:40 73° W 19:11:38 10° N
Cosmos 1959 Rocket 4.5 19:06:06 10° N 19:12:27 84° E 19:18:48 10° S
Cosmos 2369 Rocket 3.2 19:10:58 10° NW 19:16:23 48° WSW 19:21:49 10° S
SL-08 R/B 4.3 19:10:15 10° N 19:16:28 74° E 19:22:34 10° SSE
Cosmos 2221 4.0 19:14:53 10° NNW 19:18:57 38° W 19:22:59 10° SSW
SPOT 3 Rocket 3.7 19:14:32 10° S 19:19:40 74° WSW 19:24:50 10° NNW
Cosmos 1300 3.4 19:18:19 10° NNW 19:22:04 54° W 19:25:47 10° S
TSX-5 3.1 19:19:36 10° SSW 19:22:33 71° SE 19:22:33 71° SE
Cosmos 1315 Rocket 2.9 19:19:15 10° SSW 19:23:11 74° W 19:26:06 17° N
Cosmos 1408 Rocket 3.3 19:19:20 10° S 19:23:38 83° E 19:26:39 19° N
Cosmos 1626 1.9 19:21:02 10° S 19:24:43 76° E 19:25:22 57° NNE
COSMO-SKYMED 1 4.3 19:22:05 10° N 19:25:58 33° WNW 19:29:51 10° SW
USA 81 4.2 19:26:31 10° SSE 19:31:24 46° E 19:31:24 46° E
Meteor 1-27 4.2 19:27:03 10° N 19:32:42 60° ENE 19:38:23 10° SSE
GEOS 3 Rocket 3.5 19:29:52 25° SE 19:33:02 74° NE 19:38:24 10° NNW
Tiangong 1 3.3 19:31:36 10° WNW 19:32:22 16° NW 19:32:22 16° NW
Meteor 1-11 4.1 19:29:33 10° S 19:35:06 79° E 19:40:03 14° NNE
Cosmos 44 2.8 19:32:22 10° SSW 19:36:38 77° ESE 19:36:53 73° E
Cosmos 1656 Rocket 3.5 19:32:51 10° NNW 19:38:19 70° ENE 19:41:01 31° SE
ERS-2 3.3 19:35:14 10° S 19:38:44 44° W 19:42:17 10° NNW
Cosmos 1943 Rocket 3.2 19:33:47 10° NW 19:39:07 46° WSW 19:44:23 10° S
Cosmos 2366 rocket 4.4 19:35:36 10° NNW 19:41:46 63° W 19:47:50 10° S
Cosmos 1777 Rocket 3.8 19:42:19 10° NNW 19:47:35 79° ENE 19:49:05 48° SSE
Cosmos 1743 Rocket 4.4 19:43:45 10° S 19:46:32 38° S 19:46:32 38° S
FengYun 1-2 T 4.5 19:45:17 10° S 19:50:55 70° WSW 19:56:32 10° NNW
Meteor 2-15 4.4 19:45:40 10° S 19:51:22 57° ESE 19:51:22 57° ESE
Cosmos 44 Rocket 3.1 19:48:44 10° SSW 19:53:08 80° SSW 19:53:08 80° SSW
COSMOS 2406 3.3 19:48:49 10° S 19:53:50 57° SE 19:53:50 57° SE
Nadezhda 3 Rocket 3.9 19:49:50 10° S 19:56:08 85° E 20:01:57 13° N
Cosmos 2058 4.5 19:52:22 10° S 19:54:13 26° S 19:54:13 26° S
H-2A R/B 4.1 19:53:05 10° SSW 19:56:35 38° W 20:00:11 10° NNW
Cosmos 2098 Rocket 3.7 19:54:11 10° N 19:59:10 77° W 20:05:26 10° S
OAO 3 Rocket 4.1 20:06:42 10° WSW 20:10:16 43° SW 20:10:16 43° SW
NOSS 3-4 (A) 4.4 20:45:53 10° NW 20:52:46 52° WSW 20:53:32 50° SW
NOSS 3-4 (C) 4.4 20:45:58 10° NW 20:52:53 53° WSW 20:53:33 51° SW
